Voltar ao catálogo

USA 253

AtivoMilitarGEO
NORAD 40099·PAYLOAD·🇺🇸 United States

Lançado Jul 28, 2014 de Cape Canaveral Space Force Station

Loading…

TLE

AtualizadoSource: Space-Track

Época: Sep 14, 2026, 08:18 UTC

1 40099U 14043A   26257.34605166 -.00000081  00000-0  00000+0 0  9996
2 40099   5.7320  74.1304 0004241 112.9296 213.8873  0.96772995 28221

Acompanhe USA 253 em tempo real com AllMySat

Download on the App Store